Location: Unspecified
(43.4680°N, 87.1740°E)
Time: 19:49:40
(UTC+00:00)

DELTA 2 R/B (1) - Pass Details

Date: 17 April 2021
Orbit: 790 x 803 km, 39.6° (Epoch: 12 May)

Event Time Altitude Azimuth Distance (km) Brightness Sun altitude
Exits shadow 21:08:53 48° 197° (SSW) 1,027 3.7 -22.3°
Maximum altitude 21:09:39 52° 169° (SSE) 981 3.8 -22.2°
Drops below altitude 10° 21:15:01 10° 94° (E) 2,358 6.6 -21.5°
Sets 21:17:34 0° 90° (E) 3,290 7.6 -21.1°
